Date String (YYYY-MM-DD hh:mm:ss) UTC,Instrument flags,absolute air pressure of the measurement (hPa),sample flow rate (lpm),inlet stack bypass flow (lpm),air temperature of the measurement (°C),ambient temperature measured by the external sensor (°C),aerosol sample conditioner tube jacket temperature (°C),OPC LED temperature (°C),internal box temperature (°C),relative humidity of the measurement (%),span deviation,mass concentration of particles derived from Lorenz-Mie calculation of OPC scattering (μg/m³),mass concentration of particles derived from Lorenz-Mie calculation of OPC scattering (μg/m³),mass concentration of particles derived from Lorenz-Mie calculation of OPC scattering (μg/m³)
DateTimeUTC,F1_M11,P_M11,Q1_M11,Q2_M11,T1_M11,T2_M11,T3_M11,T4_M11,T5_M11,U1_M11,ZSPAN_M11,X0_M11,X2_M11,X1_M11
2023-08-05 13:00:00,SystemResetWarning,0835.2,5.01,000.00,029.7,028.2,000.0,038.4,031.3,28.0,0000.0,0008.12,0004.36,0003.94
2023-08-05 13:01:00,SystemResetWarning,0835.2,5.00,000.00,029.7,028.3,000.0,038.4,031.4,28.2,0000.0,0007.96,0004.32,0003.94
2023-08-05 13:02:00,SystemResetWarning,0835.2,5.00,000.00,029.8,028.4,000.0,038.4,031.4,28.7,0000.0,0007.90,0004.34,0003.96
2023-08-05 13:03:00,SystemResetWarning,0835.3,5.00,000.00,029.8,028.5,000.0,038.4,031.4,28.4,0000.0,0007.94,0004.37,0003.98
2023-08-05 13:04:00,SystemResetWarning,0835.2,4.99,000.00,029.8,028.5,000.0,038.4,031.4,28.2,0000.0,0007.95,0004.38,0004.00
2023-08-05 13:05:00,SystemResetWarning,0835.2,5.00,000.00,029.8,028.6,000.0,038.4,031.4,27.3,0000.0,0007.88,0004.39,0004.02
2023-08-05 13:06:00,SystemResetWarning,0835.2,4.99,000.00,029.8,028.6,000.0,038.4,031.5,26.6,0000.0,0008.07,0004.42,0004.03
2023-08-05 13:07:00,SystemResetWarning,0835.2,5.00,000.00,029.9,028.7,000.0,038.4,031.5,26.3,0000.0,0008.33,0004.45,0004.04
2023-08-05 13:08:00,SystemResetWarning,0835.2,5.01,000.00,029.9,028.7,000.0,038.5,031.5,26.1,0000.0,0008.56,0004.44,0004.05
2023-08-05 13:09:00,SystemResetWarning,0835.2,4.99,000.00,029.9,028.0,000.0,038.4,031.5,25.9,0000.0,0008.57,0004.43,0004.06
2023-08-05 13:10:00,SystemResetWarning,0835.2,5.00,000.00,029.9,026.4,000.0,038.3,031.2,26.5,0000.0,0008.33,0004.44,0004.06
2023-08-05 13:11:00,SystemResetWarning,0835.2,5.00,000.00,029.8,026.0,000.0,038.2,031.0,26.7,0000.0,0008.42,0004.45,0004.06
2023-08-05 13:12:00,SystemResetWarning,0835.1,5.01,000.00,029.7,026.2,000.0,038.2,030.9,26.9,0000.0,0008.52,0004.47,0004.06
2023-08-05 13:13:00,SystemResetWarning,0835.1,5.01,000.00,029.6,026.5,000.0,038.3,031.0,27.5,0000.0,0008.57,0004.47,0004.06
2023-08-05 13:14:00,SystemResetWarning,0835.1,4.99,000.00,029.6,026.9,000.0,038.3,031.0,27.9,0000.0,0008.67,0004.48,0004.06
2023-08-05 13:15:00,SystemResetWarning,0835.2,5.00,000.00,029.6,027.2,000.0,038.3,031.1,28.3,0000.0,0009.95,0004.49,0004.05
2023-08-05 13:16:00,SystemResetWarning,0835.2,5.00,000.00,029.6,027.5,000.0,038.3,031.1,28.0,0000.0,0010.09,0004.51,0004.05
2023-08-05 13:17:00,SystemResetWarning,0835.2,5.01,000.00,029.6,027.7,000.0,038.3,031.2,27.5,0000.0,0009.98,0004.48,0004.03
2023-08-05 13:18:00,SystemResetWarning,0835.2,5.00,000.00,029.6,027.9,000.0,038.3,031.2,26.9,0000.0,0009.74,0004.50,0004.04
2023-08-05 13:19:00,SystemResetWarning,0835.2,5.00,000.00,029.7,028.0,000.0,038.3,031.3,26.9,0000.0,0009.46,0004.52,0004.04
2023-08-05 13:20:00,SystemResetWarning,0835.2,5.00,000.00,029.7,028.2,000.0,038.3,031.3,27.0,0000.0,0009.31,0004.52,0004.04
2023-08-05 13:21:00,SystemResetWarning,0835.2,5.00,000.00,029.7,028.3,000.0,038.3,031.3,27.3,0000.0,0009.27,0004.53,0004.04
2023-08-05 13:22:00,SystemResetWarning,0835.3,5.01,000.00,029.7,028.4,000.0,038.3,031.4,27.3,0000.0,0008.91,0004.53,0004.05
2023-08-05 13:23:00,SystemResetWarning,0835.3,5.00,000.00,029.8,028.5,000.0,038.3,031.4,27.3,0000.0,0009.05,0004.52,0004.06
2023-08-05 13:24:00,SystemResetWarning,0835.3,5.00,000.00,029.8,028.5,000.0,038.4,031.4,26.9,0000.0,0009.06,0004.52,0004.07
2023-08-05 13:25:00,SystemResetWarning,0835.3,5.00,000.00,029.8,028.6,000.0,038.4,031.4,26.9,0000.0,0009.08,0004.51,0004.07
2023-08-05 13:26:00,SystemResetWarning,0835.3,4.99,000.00,029.8,028.5,000.0,038.4,031.5,26.7,0000.0,0008.21,0004.50,0004.08
2023-08-05 13:27:00,SystemResetWarning,0835.3,4.99,000.00,029.8,027.3,000.0,038.3,031.3,26.7,0000.0,0008.44,0004.52,0004.08
2023-08-05 13:28:00,SystemResetWarning,0835.3,5.01,000.00,029.8,025.7,000.0,038.1,031.0,27.1,0000.0,0008.57,0004.55,0004.09
2023-08-05 13:29:00,SystemResetWarning,0835.3,5.01,000.00,029.7,025.3,000.0,038.0,030.9,27.6,0000.0,0008.60,0004.57,0004.10
2023-08-05 13:30:00,SystemResetWarning,0835.3,5.01,000.00,029.5,025.5,000.0,038.1,030.7,27.9,0000.0,0008.46,0004.54,0004.10
2023-08-05 13:31:00,SystemResetWarning,0835.3,5.00,000.00,029.5,025.9,000.0,038.1,030.7,27.9,0000.0,0008.58,0004.53,0004.10
2023-08-05 13:32:00,SystemResetWarning,0835.2,5.00,000.00,029.4,026.4,000.0,038.1,030.8,27.8,0000.0,0008.58,0004.52,0004.10
2023-08-05 13:33:00,SystemResetWarning,0835.2,5.00,000.00,029.4,026.7,000.0,038.1,030.9,28.2,0000.0,0008.54,0004.50,0004.09
2023-08-05 13:34:00,SystemResetWarning,0835.2,5.00,000.00,029.4,027.0,000.0,038.1,030.9,28.1,0000.0,0008.41,0004.51,0004.08
2023-08-05 13:35:00,SystemResetWarning,0835.2,5.00,000.00,029.4,027.3,000.0,038.1,031.0,27.8,0000.0,0008.36,0004.52,0004.09
2023-08-05 13:36:00,SystemResetWarning,0835.2,4.99,000.00,029.5,027.5,000.0,038.1,031.0,27.9,0000.0,0008.34,0004.52,0004.08
2023-08-05 13:37:00,SystemResetWarning,0835.3,5.00,000.00,029.5,027.7,000.0,038.1,031.1,29.4,0000.0,0008.29,0004.52,0004.08
2023-08-05 13:38:00,SystemResetWarning,0835.3,5.00,000.00,029.5,027.9,000.0,038.1,031.1,29.7,0000.0,0007.74,0004.51,0004.09
2023-08-05 13:39:00,SystemResetWarning,0835.4,5.00,000.00,029.5,028.0,000.0,038.1,031.2,29.5,0000.0,0007.44,0004.48,0004.08
2023-08-05 13:40:00,SystemResetWarning,0835.4,5.00,000.00,029.5,028.1,000.0,038.1,031.2,29.6,0000.0,0007.43,0004.49,0004.08
2023-08-05 13:41:00,SystemResetWarning,0835.5,5.00,000.00,029.6,028.2,000.0,038.1,031.2,28.4,0000.0,0007.41,0004.49,0004.07
2023-08-05 13:42:00,SystemResetWarning,0835.5,5.00,000.00,029.6,028.3,000.0,038.2,031.3,28.0,0000.0,0007.53,0004.51,0004.08
2023-08-05 13:43:00,SystemResetWarning,0835.5,5.00,000.00,029.6,028.4,000.0,038.2,031.3,27.2,0000.0,0007.53,0004.52,0004.09
2023-08-05 13:44:00,SystemResetWarning,0835.5,5.00,000.00,029.6,028.4,000.0,038.2,031.3,26.4,0000.0,0007.58,0004.55,0004.11
2023-08-05 13:45:00,SystemResetWarning,0835.5,4.99,000.00,029.7,028.5,000.0,038.2,031.3,26.9,0000.0,0007.61,0004.55,0004.11
2023-08-05 13:46:00,SystemResetWarning,0835.5,4.99,000.00,029.7,028.5,000.0,038.2,031.4,27.1,0000.0,0007.56,0004.54,0004.11
2023-08-05 13:47:00,SystemResetWarning,0835.5,5.00,000.00,029.7,028.6,000.0,038.2,031.4,27.2,0000.0,0007.57,0004.56,0004.12
2023-08-05 13:48:00,SystemResetWarning,0835.5,5.01,000.00,029.8,028.6,000.0,038.3,031.4,26.7,0000.0,0007.53,0004.57,0004.13
2023-08-05 13:49:00,SystemResetWarning,0835.5,5.00,000.00,029.8,028.6,000.0,038.3,031.4,27.7,0000.0,0007.55,0004.58,0004.13
2023-08-05 13:50:00,SystemResetWarning,0835.5,4.98,000.00,029.8,027.2,000.0,038.2,031.3,27.7,0000.0,0007.93,0004.61,0004.14
2023-08-05 13:51:00,SystemResetWarning,0835.5,5.01,000.00,029.7,026.3,000.0,038.0,031.1,27.7,0000.0,0008.13,0004.60,0004.15
2023-08-05 13:52:00,SystemResetWarning,0835.5,5.01,000.00,029.7,026.3,000.0,038.0,031.0,28.0,0000.0,0008.14,0004.60,0004.15
2023-08-05 13:53:00,SystemResetWarning,0835.4,5.00,000.00,029.6,026.6,000.0,038.1,030.9,28.2,0000.0,0007.85,0004.56,0004.15
2023-08-05 13:54:00,SystemResetWarning,0835.4,5.00,000.00,029.6,026.9,000.0,038.1,031.0,28.5,0000.0,0007.90,0004.58,0004.15
2023-08-05 13:55:00,SystemResetWarning,0835.3,5.00,000.00,029.6,027.2,000.0,038.1,031.1,28.0,0000.0,0008.54,0004.58,0004.14
2023-08-05 13:56:00,SystemResetWarning,0835.5,5.00,000.00,029.6,027.4,000.0,038.2,031.1,28.1,0000.0,0008.67,0004.58,0004.15
2023-08-05 13:57:00,SystemResetWarning,0835.3,4.99,000.00,029.6,027.7,000.0,038.2,031.2,28.6,0000.0,0008.78,0004.60,0004.16
2023-08-05 13:58:00,SystemResetWarning,0835.3,5.00,000.00,029.6,027.9,000.0,038.2,031.2,28.6,0000.0,0009.33,0004.60,0004.16
2023-08-05 13:59:00,SystemResetWarning,0835.3,5.00,000.00,029.6,028.0,000.0,038.2,031.2,28.6,0000.0,0009.39,0004.61,0004.15
